W4AWS Weather Reports


time (UTC)temp
C
wind
direction
speed
KPH
gust
KPH
rain 1hr
cm
rain 24hr
cm
rain mn
cm
humidity
%
barometer
mb
20260505095516 16 113 1.6 6.4 0.00 0.00 0.00 57 1016.1
20260505094536 16 158 3.2 8.0 0.00 0.00 0.00 57 1015.9
20260505093516 16 180 3.2 8.0 0.00 0.00 0.00 57 1015.8
20260505092515 16 180 1.6 6.4 0.00 0.00 0.00 57 1015.8
20260505091516 16 0.0 3.2 0.00 0.00 0.00 57 1015.8
20260505090536 16 0.0 6.4 0.00 0.00 0.00 56 1015.8
20260505085536 16 113 1.6 4.8 0.00 0.00 0.00 56 1015.8
20260505084516 16 180 1.6 6.4 0.00 0.00 0.00 56 1015.9
20260505083556 16 0.0 3.2 0.00 0.00 0.00 56 1015.9
20260505082516 16 0.0 3.2 0.00 0.00 0.00 56 1016.0
20260505081516 16 203 1.6 14.5 0.00 0.00 0.00 55 1016.0
20260505080516 17 203 1.6 3.2 0.00 0.00 0.00 55 1015.8
20260505075536 17 90 1.6 6.4 0.00 0.00 0.00 55 1015.8
20260505074515 17 225 1.6 6.4 0.00 0.00 0.00 55 1015.7
20260505073525 17 0.0 4.8 0.00 0.00 0.00 54 1015.6
20260505072515 17 203 1.6 8.0 0.00 0.00 0.00 54 1015.7
20260505071516 17 0.0 3.2 0.00 0.00 0.00 54 1015.5
20260505070515 17 203 1.6 3.2 0.00 0.00 0.00 54 1015.3
20260505065515 17 45 1.6 11.3 0.00 0.00 0.00 54 1015.3
20260505064515 17 23 1.6 6.4 0.00 0.00 0.00 54 1015.3
20260505063515 17 90 1.6 4.8 0.00 0.00 0.00 54 1015.4
20260505062515 17 113 1.6 6.4 0.00 0.00 0.00 54 1015.4
20260505061515 17 68 1.6 8.0 0.00 0.00 0.00 54 1015.4
20260505060515 17 0.0 4.8 0.00 0.00 0.00 54 1015.4
20260505055537 18 225 1.6 8.0 0.00 0.00 0.00 54 1015.4
20260505054517 18 203 1.6 9.7 0.00 0.00 0.00 53 1015.5
20260505053517 18 158 3.2 14.5 0.00 0.00 0.00 53 1015.4
20260505052517 18 135 1.6 9.7 0.00 0.00 0.00 53 1015.5
20260505051517 18 135 1.6 4.8 0.00 0.00 0.00 53 1015.5
20260505050517 18 113 1.6 6.4 0.00 0.00 0.00 52 1015.5
20260505041517 18 68 1.6 6.4 0.00 0.00 0.00 52 1015.6
20260505040537 18 0 1.6 6.4 0.00 0.00 0.00 52 1015.5
20260505035536 18 45 1.6 8.0 0.00 0.00 0.00 52 1015.5
20260505034516 18 315 1.6 6.4 0.00 0.00 0.00 52 1015.5
20260505033515 19 315 1.6 4.8 0.00 0.00 0.00 52 1015.5
20260505032516 19 45 3.2 8.0 0.00 0.00 0.00 52 1015.5
20260505031516 19 270 1.6 6.4 0.00 0.00 0.00 53 1015.4
20260505030515 19 293 3.2 9.7 0.00 0.00 0.00 53 1015.4
20260505025515 19 270 3.2 12.9 0.00 0.00 0.00 53 1015.3
20260505024516 19 338 4.8 16.1 0.00 0.00 0.00 53 1015.2
20260505023516 19 0 1.6 16.1 0.00 0.00 0.00 53 1015.2
20260505022515 20 225 3.2 14.5 0.00 0.00 0.00 53 1015.0
20260505021515 20 158 3.2 11.3 0.00 0.00 0.00 53 1014.9
20260505020515 20 68 3.2 14.5 0.00 0.00 0.00 52 1015.0
20260505015515 20 293 1.6 9.7 0.00 0.00 0.00 52 1014.8
20260505014515 20 315 1.6 6.4 0.00 0.00 0.00 50 1014.8
20260505013556 20 203 1.6 3.2 0.00 0.00 0.00 46 1014.8
20260505012535 20 0.0 1.6 0.00 0.00 0.00 43 1014.8
20260505011537 20 0.0 1.6 0.00 0.00 0.00 42 1014.7
20260505010537 20 0.0 1.6 0.00 0.00 0.00 40 1014.7
20260505005517 20 0.0 1.6 0.00 0.00 0.00 39 1014.6
20260505004517 21 0.0 1.6 0.00 0.00 0.00 39 1014.5
20260505003517 21 0.0 4.8 0.00 0.00 0.00 37 1014.1
20260505002517 21 0.0 1.6 0.00 0.00 0.00 37 1014.0
20260505001517 21 0.0 1.6 0.00 0.00 0.00 36 1013.9
20260505000517 21 0.0 0.0 0.00 0.00 0.00 36 1013.9
20260504235555 21 0.0 3.2 0.00 0.00 0.00 36 1013.9
20260504234537 22 0.0 3.2 0.00 0.00 0.00 35 1013.7
20260504233517 22 0.0 1.6 0.00 0.00 0.00 34 1013.5
20260504232517 22 0.0 6.4 0.00 0.00 0.00 35 1013.4
20260504231517 23 0.0 3.2 0.00 0.00 0.00 33 1013.2
20260504230517 23 315 1.6 4.8 0.00 0.00 0.00 31 1013.3
20260504225517 23 180 1.6 4.8 0.00 0.00 0.00 30 1013.4
20260504224517 23 338 1.6 4.8 0.00 0.00 0.00 30 1013.4
20260504223517 23 180 1.6 9.7 0.00 0.00 0.00 30 1013.4
20260504222517 23 135 1.6 4.8 0.00 0.00 0.00 30 1013.4
20260504221517 23 0.0 1.6 0.00 0.00 0.00 31 1013.5
20260504220537 23 225 1.6 4.8 0.00 0.00 0.00 29 1013.5
20260504215517 24 180 1.6 4.8 0.00 0.00 0.00 31 1013.5
20260504214517 24 203 1.6 6.4 0.00 0.00 0.00 30 1013.6
20260504213517 24 203 1.6 9.7 0.00 0.00 0.00 29 1013.6
20260504212517 24 68 1.6 6.4 0.00 0.00 0.00 29 1013.6
20260504211517 24 225 1.6 4.8 0.00 0.00 0.00 28 1013.7
20260504210517 25 225 1.6 4.8 0.00 0.00 0.00 28 1013.7
20260504205517 25 180 1.6 12.9 0.00 0.00 0.00 26 1013.6
20260504204517 25 180 1.6 8.0 0.00 0.00 0.00 28 1013.6
20260504203537 25 0 3.2 8.0 0.00 0.00 0.00 28 1013.7
20260504202516 25 225 3.2 14.5 0.00 0.00 0.00 28 1013.9
20260504201517 25 45 3.2 11.3 0.00 0.00 0.00 26 1013.9
20260504200517 25 113 1.6 4.8 0.00 0.00 0.00 28 1013.9
20260504195517 25 135 1.6 3.2 0.00 0.00 0.00 29 1014.0
20260504194517 25 203 1.6 6.4 0.00 0.00 0.00 28 1014.3
20260504193517 25 203 3.2 11.3 0.00 0.00 0.00 29 1014.5
20260504192537 25 158 1.6 12.9 0.00 0.00 0.00 28 1014.5
20260504191537 25 23 3.2 8.0 0.00 0.00 0.00 23 1014.7
20260504190517 25 203 1.6 8.0 0.00 0.00 0.00 27 1014.9
20260504185516 24 248 1.6 11.3 0.00 0.00 0.00 31 1015.0
20260504184517 24 225 3.2 11.3 0.00 0.00 0.00 29 1015.2
20260504183517 23 158 1.6 9.7 0.00 0.00 0.00 32 1015.2
20260504182517 23 113 1.6 4.8 0.00 0.00 0.00 31 1015.5
20260504181517 23 135 1.6 6.4 0.00 0.00 0.00 32 1015.6
20260504180516 23 180 3.2 14.5 0.00 0.00 0.00 30 1015.6
20260504175516 23 135 1.6 4.8 0.00 0.00 0.00 29 1015.7
20260504174537 23 113 4.8 8.0 0.00 0.00 0.00 27 1015.7
20260504173517 23 45 1.6 4.8 0.00 0.00 0.00 31 1015.8
20260504172516 23 180 3.2 16.1 0.00 0.00 0.00 29 1016.0
20260504171516 23 180 3.2 9.7 0.00 0.00 0.00 27 1016.1
20260504170517 23 45 3.2 6.4 0.00 0.00 0.00 29 1016.2
20260504150536 21 315 1.6 3.2 0.00 0.00 0.00 41 1017.1
20260504140516 18 158 1.6 6.4 0.00 0.00 0.00 45 1017.5
20260504130516 17 90 1.6 6.4 0.00 0.00 0.00 50 1017.8
20260504110516 12 0.0 0.0 0.00 0.00 0.00 61 1018.1
20260504100516 12 0.0 3.2 0.00 0.00 0.00 57 1018.1